VLG57EM LIRQ-LEBL

Flight info

Callsign VLG57EM
Flight time 1h 23m
Altitude 34000
Route BIBNO DCT BEROK DCT ENOBA DCT GEKBA DCT VAMTU DCT KOLON DCT GANGU DCT PADKO DCT DIVKO DCT NILDU N975 BISBA
Aircraft A319/M-SDFGHILORVWXY/LB1

Departure

Time 2026-05-07 10:08
Airport Florence Airport, Peretola (LIRQ)

Arrival

Time 2026-05-07 11:31
Airport Josep Tarradellas Barcelona-El Prat Airport (LEBL)
Time Latitude Longitude Altitude Speed Heading
2026-05-07 09:50 43.80383 11.20103 135 ft 0 kts 94°
2026-05-07 10:01 43.80384 11.20097 135 ft 2 kts 94°
2026-05-07 10:01 43.80385 11.20076 136 ft 2 kts 94°
2026-05-07 10:01 43.80386 11.20057 136 ft 0 kts 94°
2026-05-07 10:01 43.80386 11.20044 136 ft 2 kts 64°
2026-05-07 10:02 43.80376 11.20030 136 ft 1 kts 15°
2026-05-07 10:02 43.80370 11.20029 137 ft 1 kts
2026-05-07 10:02 43.80367 11.20029 137 ft 0 kts
2026-05-07 10:04 43.80374 11.20030 136 ft 2 kts
2026-05-07 10:04 43.80405 11.20036 136 ft 6 kts
2026-05-07 10:04 43.80457 11.20046 135 ft 9 kts
2026-05-07 10:04 43.80519 11.20001 134 ft 11 kts 328°
2026-05-07 10:05 43.80606 11.20008 134 ft 14 kts 15°
2026-05-07 10:05 43.80712 11.20063 134 ft 17 kts 36°
2026-05-07 10:05 43.80801 11.20195 134 ft 20 kts 48°
2026-05-07 10:05 43.80902 11.20349 135 ft 22 kts 47°
2026-05-07 10:06 43.81009 11.20515 135 ft 24 kts 48°
2026-05-07 10:06 43.81122 11.20689 138 ft 24 kts 48°
2026-05-07 10:06 43.81237 11.20869 139 ft 25 kts 48°
2026-05-07 10:06 43.81353 11.21050 141 ft 25 kts 48°
2026-05-07 10:07 43.81459 11.21216 142 ft 16 kts 59°
2026-05-07 10:07 43.81511 11.21333 142 ft 10 kts 12°
2026-05-07 10:07 43.81522 11.21308 142 ft 2 kts 238°
2026-05-07 10:07 43.81514 11.21293 142 ft 0 kts 230°
2026-05-07 10:08 43.81347 11.21034 142 ft 77 kts 229°
2026-05-07 10:08 43.80829 11.20234 186 ft 138 kts 228°
2026-05-07 10:08 43.80213 11.19225 747 ft 138 kts 232°
2026-05-07 10:08 43.79935 11.18012 1377 ft 138 kts 270°
2026-05-07 10:09 43.80047 11.16701 1892 ft 144 kts 278°
2026-05-07 10:09 43.80220 11.15266 2288 ft 160 kts 277°
2026-05-07 10:09 43.80389 11.13663 2680 ft 180 kts 276°
2026-05-07 10:09 43.80554 11.11861 3171 ft 197 kts 276°
2026-05-07 10:10 43.80716 11.09917 3671 ft 214 kts 275°
2026-05-07 10:10 43.80884 11.07782 4329 ft 226 kts 275°
2026-05-07 10:10 43.81045 11.05693 5377 ft 221 kts 275°
2026-05-07 10:10 43.81212 11.03620 6306 ft 221 kts 279°
2026-05-07 10:11 43.81791 11.01594 6940 ft 236 kts 304°
2026-05-07 10:11 43.83042 11.00074 7516 ft 256 kts 332°
2026-05-07 10:11 43.84825 10.99465 8134 ft 274 kts 354°
2026-05-07 10:11 43.86770 10.99445 8911 ft 284 kts 359°
2026-05-07 10:12 43.88722 10.99311 9758 ft 284 kts 342°
2026-05-07 10:12 43.90395 10.97953 10607 ft 281 kts 310°
2026-05-07 10:12 43.91447 10.95660 11184 ft 292 kts 296°
2026-05-07 10:12 43.92395 10.93083 11673 ft 309 kts 296°
2026-05-07 10:13 43.93400 10.90448 12364 ft 317 kts 297°
2026-05-07 10:13 43.94467 10.87766 13209 ft 319 kts 297°
2026-05-07 10:13 43.95554 10.85109 14020 ft 322 kts 298°
2026-05-07 10:13 43.96682 10.82397 14811 ft 325 kts 298°
2026-05-07 10:14 43.97813 10.79706 15565 ft 328 kts 298°
2026-05-07 10:14 43.98965 10.76980 16332 ft 330 kts 297°
2026-05-07 10:14 44.00129 10.74223 17098 ft 332 kts 297°
2026-05-07 10:14 44.01304 10.71444 17828 ft 335 kts 297°
2026-05-07 10:15 44.02483 10.68658 18532 ft 337 kts 297°
2026-05-07 10:15 44.03661 10.65869 19218 ft 339 kts 297°
2026-05-07 10:15 44.04859 10.63032 19879 ft 342 kts 296°
2026-05-07 10:15 44.06057 10.60190 20485 ft 346 kts 296°
2026-05-07 10:16 44.07280 10.57288 21108 ft 349 kts 296°
2026-05-07 10:16 44.08500 10.54389 21725 ft 352 kts 296°
2026-05-07 10:16 44.09735 10.51449 22334 ft 354 kts 295°
2026-05-07 10:16 44.10975 10.48507 22900 ft 358 kts 295°
2026-05-07 10:17 44.12239 10.45528 23485 ft 359 kts 295°
2026-05-07 10:17 44.13508 10.42523 24031 ft 362 kts 295°
2026-05-07 10:17 44.14780 10.39480 24569 ft 364 kts 294°
2026-05-07 10:17 44.15744 10.36290 25075 ft 359 kts 281°
2026-05-07 10:18 44.16122 10.32951 25612 ft 354 kts 269°
2026-05-07 10:18 44.15959 10.29572 26144 ft 353 kts 260°
2026-05-07 10:18 44.15588 10.26205 26614 ft 355 kts 259°
2026-05-07 10:18 44.15194 10.22801 27003 ft 360 kts 259°
2026-05-07 10:19 44.14793 10.19359 27327 ft 365 kts 259°
2026-05-07 10:19 44.14381 10.15827 27722 ft 368 kts 259°
2026-05-07 10:19 44.13974 10.12342 28173 ft 369 kts 259°
2026-05-07 10:19 44.13559 10.08801 28601 ft 371 kts 259°
2026-05-07 10:20 44.13145 10.05276 29008 ft 373 kts 259°
2026-05-07 10:20 44.12728 10.01726 29411 ft 374 kts 259°
2026-05-07 10:20 44.12305 9.98150 29826 ft 375 kts 259°
2026-05-07 10:20 44.11883 9.94579 30195 ft 377 kts 259°
2026-05-07 10:21 44.11454 9.90973 30537 ft 379 kts 259°
2026-05-07 10:21 44.11025 9.87351 30911 ft 379 kts 259°
2026-05-07 10:21 44.10600 9.83779 31353 ft 378 kts 259°
2026-05-07 10:21 44.10168 9.80162 31773 ft 377 kts 259°
2026-05-07 10:22 44.09739 9.76597 32174 ft 376 kts 259°
2026-05-07 10:22 44.09312 9.73051 32566 ft 376 kts 259°
2026-05-07 10:22 44.08876 9.69452 32883 ft 377 kts 259°
2026-05-07 10:22 44.08444 9.65882 33153 ft 379 kts 259°
2026-05-07 10:23 44.08001 9.62222 33431 ft 381 kts 259°
2026-05-07 10:23 44.07558 9.58594 33690 ft 382 kts 259°
2026-05-07 10:23 44.07118 9.54982 33937 ft 383 kts 259°
2026-05-07 10:24 44.06224 9.47689 34000 ft 384 kts 259°
2026-05-07 10:24 44.05323 9.40377 34008 ft 385 kts 259°
2026-05-07 10:25 44.04421 9.33099 34011 ft 386 kts 259°
2026-05-07 10:25 44.03510 9.25746 34012 ft 386 kts 259°
2026-05-07 10:26 44.02594 9.18422 34017 ft 386 kts 259°
2026-05-07 10:26 44.01677 9.11128 34013 ft 386 kts 259°
2026-05-07 10:27 44.00748 9.03783 34013 ft 386 kts 259°
2026-05-07 10:27 43.99812 8.96436 34017 ft 390 kts 259°
2026-05-07 10:28 43.98852 8.88913 34017 ft 404 kts 259°
2026-05-07 10:28 43.97858 8.81209 34015 ft 409 kts 259°
2026-05-07 10:29 43.96858 8.73470 34015 ft 410 kts 259°
2026-05-07 10:29 43.95850 8.65722 34012 ft 409 kts 259°
2026-05-07 10:30 43.94324 8.54071 34010 ft 409 kts 259°
2026-05-07 10:30 43.93308 8.46369 33999 ft 408 kts 259°
2026-05-07 10:31 43.92281 8.38614 34002 ft 409 kts 259°
2026-05-07 10:31 43.91256 8.30926 34005 ft 408 kts 259°
2026-05-07 10:32 43.90228 8.23232 34003 ft 408 kts 259°
2026-05-07 10:32 43.89171 8.15504 33999 ft 408 kts 258°
2026-05-07 10:33 43.88106 8.07819 34002 ft 408 kts 258°
2026-05-07 10:33 43.87045 8.00117 34004 ft 408 kts 259°
2026-05-07 10:34 43.85982 7.92377 34008 ft 408 kts 259°
2026-05-07 10:34 43.84919 7.84669 34004 ft 408 kts 259°
2026-05-07 10:35 43.83853 7.76969 34000 ft 409 kts 259°
2026-05-07 10:35 43.82779 7.69247 34002 ft 408 kts 258°
2026-05-07 10:36 43.81706 7.61577 33998 ft 409 kts 259°
2026-05-07 10:36 43.80616 7.53826 33991 ft 409 kts 259°
2026-05-07 10:37 43.79532 7.46167 33995 ft 409 kts 259°
2026-05-07 10:37 43.78432 7.38433 34001 ft 410 kts 259°
2026-05-07 10:38 43.77336 7.30749 34003 ft 409 kts 258°
2026-05-07 10:38 43.76231 7.23016 34011 ft 409 kts 258°
2026-05-07 10:39 43.75127 7.15351 34010 ft 409 kts 258°
2026-05-07 10:39 43.74006 7.07639 34003 ft 409 kts 258°
2026-05-07 10:40 43.72858 7.00035 34002 ft 409 kts 256°
2026-05-07 10:40 43.71264 6.92474 34002 ft 410 kts 251°
2026-05-07 10:41 43.69198 6.85118 34007 ft 411 kts 249°
2026-05-07 10:41 43.67049 6.77795 34012 ft 412 kts 249°
2026-05-07 10:42 43.64607 6.70692 34009 ft 413 kts 240°
2026-05-07 10:42 43.61445 6.64076 34010 ft 414 kts 239°
2026-05-07 10:43 43.58256 6.57496 34002 ft 413 kts 238°
2026-05-07 10:43 43.55082 6.50939 34000 ft 413 kts 238°
2026-05-07 10:44 43.51891 6.44356 33992 ft 413 kts 238°
2026-05-07 10:44 43.48713 6.37805 33995 ft 413 kts 238°
2026-05-07 10:45 43.45554 6.31299 34002 ft 413 kts 238°
2026-05-07 10:45 43.42357 6.24711 34007 ft 414 kts 238°
2026-05-07 10:46 43.39164 6.18155 34007 ft 414 kts 238°
2026-05-07 10:46 43.35973 6.11628 34005 ft 414 kts 238°
2026-05-07 10:47 43.32760 6.05074 34003 ft 414 kts 238°
2026-05-07 10:47 43.29545 5.98533 34002 ft 414 kts 237°
2026-05-07 10:48 43.26334 5.92014 34002 ft 414 kts 237°
2026-05-07 10:48 43.23100 5.85461 34002 ft 414 kts 237°
2026-05-07 10:49 43.19879 5.78956 34002 ft 415 kts 237°
2026-05-07 10:49 43.16638 5.72421 34003 ft 415 kts 237°
2026-05-07 10:50 43.13401 5.65905 34004 ft 415 kts 237°
2026-05-07 10:50 43.10161 5.59395 33998 ft 416 kts 237°
2026-05-07 10:51 43.06912 5.52887 34008 ft 415 kts 237°
2026-05-07 10:51 43.03647 5.46363 34007 ft 415 kts 237°
2026-05-07 10:52 43.00384 5.39855 34007 ft 416 kts 237°
2026-05-07 10:52 42.97130 5.33377 34013 ft 416 kts 236°
2026-05-07 10:53 42.93872 5.26881 34015 ft 416 kts 236°
2026-05-07 10:53 42.90597 5.20372 34015 ft 415 kts 236°
2026-05-07 10:54 42.87330 5.13943 34018 ft 415 kts 236°
2026-05-07 10:54 42.84035 5.07488 34017 ft 417 kts 236°
2026-05-07 10:55 42.80721 5.00983 34015 ft 417 kts 236°
2026-05-07 10:55 42.77430 4.94527 34019 ft 417 kts 236°
2026-05-07 10:56 42.74136 4.88073 34017 ft 417 kts 236°
2026-05-07 10:56 42.70828 4.81603 34022 ft 417 kts 236°
2026-05-07 10:57 42.67527 4.75160 34021 ft 416 kts 236°
2026-05-07 10:57 42.64227 4.68734 34020 ft 416 kts 236°
2026-05-07 10:58 42.60920 4.62308 34017 ft 415 kts 236°
2026-05-07 10:58 42.57610 4.55889 34023 ft 415 kts 236°
2026-05-07 10:59 42.54316 4.49515 34019 ft 416 kts 236°
2026-05-07 10:59 42.50985 4.43083 34021 ft 416 kts 236°
2026-05-07 11:00 42.47681 4.36719 34022 ft 415 kts 236°
2026-05-07 11:00 42.44354 4.30308 34021 ft 415 kts 236°
2026-05-07 11:01 42.41048 4.23941 34020 ft 415 kts 236°
2026-05-07 11:01 42.37711 4.17541 34019 ft 415 kts 235°
2026-05-07 11:02 42.34397 4.11209 34023 ft 416 kts 235°
2026-05-07 11:02 42.31065 4.04855 34023 ft 416 kts 235°
2026-05-07 11:03 42.27715 3.98488 34018 ft 414 kts 235°
2026-05-07 11:03 42.24383 3.92164 34017 ft 415 kts 235°
2026-05-07 11:04 42.21048 3.85848 34013 ft 415 kts 235°
2026-05-07 11:04 42.17693 3.79516 34014 ft 415 kts 235°
2026-05-07 11:05 42.14333 3.73186 34012 ft 416 kts 235°
2026-05-07 11:05 42.11028 3.66868 34010 ft 416 kts 237°
2026-05-07 11:06 42.08065 3.60174 34009 ft 415 kts 242°
2026-05-07 11:06 42.05589 3.53189 34008 ft 416 kts 245°
2026-05-07 11:07 42.02592 3.46581 34007 ft 415 kts 232°
2026-05-07 11:07 41.98479 3.41171 34004 ft 418 kts 219°
2026-05-07 11:08 41.93440 3.37230 34003 ft 421 kts 206°
2026-05-07 11:08 41.87853 3.34921 34005 ft 425 kts 198°
2026-05-07 11:09 41.82117 3.32912 33999 ft 422 kts 202°
2026-05-07 11:09 41.77029 3.29493 33509 ft 403 kts 217°
2026-05-07 11:10 41.74818 3.27169 32539 ft 405 kts 224°
2026-05-07 11:10 41.72872 3.24492 31413 ft 410 kts 230°
2026-05-07 11:10 41.71013 3.21549 30290 ft 415 kts 231°
2026-05-07 11:10 41.69179 3.18607 29236 ft 418 kts 231°
2026-05-07 11:11 41.67323 3.15628 28148 ft 422 kts 231°
2026-05-07 11:11 41.65468 3.12654 27369 ft 418 kts 230°
2026-05-07 11:11 41.63604 3.09671 26633 ft 413 kts 230°
2026-05-07 11:11 41.61792 3.06777 25877 ft 410 kts 230°
2026-05-07 11:12 41.59975 3.03878 25093 ft 407 kts 230°
2026-05-07 11:12 41.58172 3.01003 24319 ft 405 kts 230°
2026-05-07 11:12 41.56359 2.98117 23519 ft 403 kts 230°
2026-05-07 11:12 41.54579 2.95286 22764 ft 401 kts 230°
2026-05-07 11:13 41.52807 2.92470 22046 ft 399 kts 230°
2026-05-07 11:13 41.51015 2.89625 21329 ft 396 kts 230°
2026-05-07 11:13 41.49263 2.86848 20624 ft 394 kts 230°
2026-05-07 11:13 41.47503 2.84056 19924 ft 392 kts 230°
2026-05-07 11:14 41.45760 2.81297 19253 ft 389 kts 230°
2026-05-07 11:14 41.44032 2.78564 18578 ft 388 kts 230°
2026-05-07 11:14 41.42300 2.75825 17897 ft 386 kts 230°
2026-05-07 11:14 41.40595 2.73134 17260 ft 384 kts 230°
2026-05-07 11:15 41.38857 2.70394 16647 ft 381 kts 230°
2026-05-07 11:15 41.37167 2.67733 15997 ft 376 kts 230°
2026-05-07 11:15 41.35513 2.65129 15169 ft 372 kts 230°
2026-05-07 11:15 41.33840 2.62511 14232 ft 370 kts 230°
2026-05-07 11:16 41.32184 2.59933 13532 ft 368 kts 230°
2026-05-07 11:16 41.30530 2.57355 12961 ft 365 kts 230°
2026-05-07 11:16 41.28891 2.54797 12352 ft 361 kts 230°
2026-05-07 11:16 41.27307 2.52322 11773 ft 350 kts 230°
2026-05-07 11:17 41.25760 2.49905 11192 ft 338 kts 230°
2026-05-07 11:17 41.24256 2.47556 10629 ft 328 kts 230°
2026-05-07 11:17 41.22794 2.45274 10053 ft 318 kts 230°
2026-05-07 11:17 41.21399 2.43095 9759 ft 301 kts 230°
2026-05-07 11:18 41.20092 2.41058 9717 ft 289 kts 230°
2026-05-07 11:18 41.18789 2.39025 9461 ft 286 kts 230°
2026-05-07 11:18 41.17515 2.37039 9219 ft 286 kts 230°
2026-05-07 11:18 41.16209 2.35007 8969 ft 286 kts 230°
2026-05-07 11:19 41.14936 2.33017 8714 ft 285 kts 230°
2026-05-07 11:19 41.13645 2.30998 8474 ft 284 kts 230°
2026-05-07 11:19 41.12374 2.29016 8221 ft 283 kts 230°
2026-05-07 11:19 41.11106 2.27045 7965 ft 282 kts 230°
2026-05-07 11:20 41.09831 2.25065 7720 ft 281 kts 230°
2026-05-07 11:20 41.08660 2.23011 7485 ft 281 kts 241°
2026-05-07 11:20 41.07947 2.20634 7228 ft 279 kts 257°
2026-05-07 11:20 41.07732 2.18090 6965 ft 279 kts 272°
2026-05-07 11:21 41.07997 2.15557 6699 ft 278 kts 284°
2026-05-07 11:21 41.08472 2.13066 6463 ft 276 kts 286°
2026-05-07 11:21 41.08957 2.10657 6212 ft 271 kts 286°
2026-05-07 11:21 41.09433 2.08261 5956 ft 265 kts 285°
2026-05-07 11:22 41.09889 2.05915 5707 ft 261 kts 285°
2026-05-07 11:22 41.10329 2.03611 5438 ft 254 kts 285°
2026-05-07 11:22 41.10750 2.01375 5188 ft 245 kts 285°
2026-05-07 11:22 41.11151 1.99236 4939 ft 239 kts 285°
2026-05-07 11:23 41.11548 1.97116 4781 ft 232 kts 284°
2026-05-07 11:23 41.11929 1.95071 4656 ft 224 kts 285°
2026-05-07 11:23 41.12295 1.93111 4539 ft 218 kts 285°
2026-05-07 11:23 41.12660 1.91153 4420 ft 219 kts 284°
2026-05-07 11:24 41.13026 1.89195 4288 ft 218 kts 284°
2026-05-07 11:24 41.13391 1.87239 4164 ft 218 kts 284°
2026-05-07 11:24 41.13782 1.85306 4040 ft 218 kts 293°
2026-05-07 11:24 41.14715 1.83802 3891 ft 210 kts 334°
2026-05-07 11:25 41.16068 1.83276 3790 ft 197 kts 352°
2026-05-07 11:25 41.17395 1.82990 3697 ft 191 kts 353°
2026-05-07 11:25 41.18703 1.82705 3620 ft 191 kts 352°
2026-05-07 11:25 41.20014 1.82398 3548 ft 191 kts 353°
2026-05-07 11:26 41.21313 1.82560 3447 ft 184 kts 31°
2026-05-07 11:26 41.22172 1.83727 3371 ft 177 kts 71°
2026-05-07 11:26 41.22456 1.85315 3329 ft 179 kts 81°
2026-05-07 11:26 41.22724 1.86918 3268 ft 174 kts 75°
2026-05-07 11:27 41.23100 1.88413 3033 ft 170 kts 70°
2026-05-07 11:27 41.23561 1.89852 2794 ft 167 kts 68°
2026-05-07 11:27 41.24033 1.91228 2567 ft 163 kts 68°
2026-05-07 11:27 41.24501 1.92583 2346 ft 159 kts 68°
2026-05-07 11:28 41.24954 1.93905 2137 ft 157 kts 68°
2026-05-07 11:28 41.25403 1.95220 1926 ft 157 kts 69°
2026-05-07 11:28 41.25853 1.96543 1721 ft 157 kts 69°
2026-05-07 11:28 41.26306 1.97874 1546 ft 157 kts 69°
2026-05-07 11:29 41.26727 1.99105 1328 ft 149 kts 68°
2026-05-07 11:29 41.27141 2.00317 1116 ft 139 kts 69°
2026-05-07 11:29 41.27531 2.01446 921 ft 134 kts 69°
2026-05-07 11:29 41.27909 2.02572 767 ft 133 kts 70°
2026-05-07 11:30 41.28287 2.03706 610 ft 133 kts 66°
2026-05-07 11:30 41.28675 2.04817 428 ft 132 kts 66°
2026-05-07 11:30 41.29049 2.05904 237 ft 131 kts 69°
2026-05-07 11:30 41.29429 2.07011 78 ft 131 kts 68°
2026-05-07 11:31 41.29781 2.08053 25 ft 118 kts 66°
2026-05-07 11:31 41.30051 2.08846 25 ft 69 kts 67°
2026-05-07 11:31 41.30149 2.09200 25 ft 23 kts 90°
2026-05-07 11:31 41.30131 2.09364 24 ft 14 kts 111°
2026-05-07 11:32 41.30018 2.09296 24 ft 14 kts 247°
2026-05-07 11:32 41.29974 2.09168 24 ft 15 kts 244°
2026-05-07 11:32 41.29926 2.09034 24 ft 16 kts 245°
2026-05-07 11:33 41.29881 2.08902 24 ft 17 kts 245°
2026-05-07 11:33 41.29827 2.08748 24 ft 18 kts 245°
2026-05-07 11:33 41.29774 2.08590 24 ft 18 kts 246°
2026-05-07 11:33 41.29719 2.08428 24 ft 19 kts 245°
2026-05-07 11:34 41.29662 2.08264 24 ft 20 kts 245°
2026-05-07 11:34 41.29604 2.08092 24 ft 20 kts 245°
2026-05-07 11:34 41.29544 2.07918 24 ft 20 kts 245°
2026-05-07 11:34 41.29488 2.07813 24 ft 12 kts 187°
2026-05-07 11:35 41.29410 2.07849 24 ft 12 kts 156°
2026-05-07 11:35 41.29334 2.07895 24 ft 11 kts 155°
2026-05-07 11:35 41.29259 2.07933 24 ft 11 kts 186°
2026-05-07 11:35 41.29195 2.07920 24 ft 6 kts 161°
2026-05-07 11:36 41.29161 2.07942 24 ft 3 kts 155°
2026-05-07 11:36 41.29148 2.07950 24 ft 0 kts 155°